Temperature
18 18 18 18 18 18 18 18 17 17 17 17 17 17 17 16 16 16 16 15 15 15 15 15 15 15 15 14 14 14 14 14 14 15 15 14 14 14 14 14 13 13 13
18 18 18 18 18 18 18 18 18 18 18 17 17 17 17 17 16 16 16 16 15 15 15 15 15 15 15 15 15 14 14 14 14 14 14 14 14 14 14 13 13 13 13
18 18 18 18 18 18 18 18 18 18 18 17 17 17 17 17 17 17 16 16 16 16 16 16 15 15 15 15 15 15 14 14 14 14 14 14 14 14 13 13 13 13 13
19 19 19 19 18 18 18 18 18 18 18 18 17 17 17 17 17 17 17 17 17 16 16 16 16 15 15 15 15 15 15 14 14 13 13 14 14 14 14 13 13 13 13
19 19 19 19 18 18 18 18 18 17 17 17 17 17 17 17 17 17 17 16 16 16 16 16 16 16 15 15 15 15 14 14 14 13 13 13 14 14 14 14 13 13 13
20 19 19 19 18 18 18 18 17 17 17 17 17 17 17 17 16 16 16 16 16 16 15 15 15 15 15 15 15 15 14 14 14 14 13 13 14 14 14 14 13 13 13
20 19 19 19 18 18 17 17 17 17 17 16 16 16 16 16 16 16 16 15 15 15 15 15 15 14 14 14 14 14 14 14 14 14 13 14 14 14 14 13 13 13 13
19 18 18 18 17 17 17 17 16 16 16 16 16 16 15 15 15 15 15 15 15 15 14 14 14 14 14 14 13 13 14 14 14 14 14 14 14 14 13 13 13 12 12
17 17 17 16 16 16 16 16 16 15 15 15 15 15 15 15 15 14 14 14 14 14 14 13 13 13 13 13 13 13 13 13 13 13 13 13 13 13 13 12 12 11 11
16 15 15 15 15 15 15 15 15 14 14 14 14 14 14 14 14 13 13 13 13 13 13 13 13 12 12 12 12 12 12 13 12 12 12 12 12 13 13 12 12 11 11
14 14 14 14 14 14 14 14 14 13 13 13 13 13 13 13 13 13 13 12 12 12 12 12 12 12 12 12 12 12 12 12 12 12 12 12 12 12 12 12 12 12 11
13 13 13 13 13 13 13 13 13 13 13 13 13 13 13 12 12 12 12 11 11 11 11 10 10 11 11 11 11 11 11 11 11 11 11 11 11 11 11 11 12 12 12
12 12 12 12 12 12 12 12 12 12 12 12 12 12 11 11 11 11 10 10 10 9 9 9 9 10 10 10 10 10 10 10 10 10 10 10 10 11 11 11 11 11 11
11 11 12 12 12 11 11 11 11 11 11 11 11 10 10 10 10 10 9 9 9 9 8 8 9 9 9 9 9 9 10 10 10 10 10 10 10 10 10 10 11 11 11
11 11 11 11 11 11 11 11 11 11 10 10 10 9 9 8 8 8 8 8 8 7 7 7 8 8 8 8 8 8 9 9 9 9 10 10 10 10 10 10 10 10 10
11 11 11 11 11 11 11 11 11 10 10 10 9 9 9 8 8 8 7 7 7 7 6 7 7 7 7 7 7 8 8 8 9 9 9 9 9 9 9 10 10 10 10
10 10 10 10 10 10 10 10 10 10 10 9 9 8 8 7 7 7 6 6 6 6 6 6 6 6 6 6 6 7 7 7 8 8 8 8 8 9 9 9 9 9 9
10 10 10 10 10 10 9 9 9 9 9 8 8 8 7 7 6 6 6 5 5 5 5 5 5 5 5 5 6 6 6 6 6 7 7 7 8 8 8 8 8 9 9
9 9 9 9 9 9 9 9 8 8 8 7 7 7 6 6 5 5 5 5 4 4 5 5 5 4 4 5 5 5 5 5 6 6 6 6 7 7 7 8 8 8 8
9 9 9 8 8 8 8 7 7 7 7 6 6 5 5 5 4 4 4 4 4 4 4 4 4 4 4 4 4 4 4 5 5 5 6 6 6 7 7 7 7 7 8
8 8 8 8 8 7 7 6 6 6 5 5 5 4 4 4 3 3 3 3 3 3 3 3 3 3 3 3 4 4 4 4 4 4 5 5 6 6 6 7 7 7 7
7 7 7 7 6 6 5 5 5 5 4 4 4 4 3 3 3 3 3 3 3 3 2 3 3 3 3 3 3 3 3 3 4 4 4 5 5 5 6 6 6 7 7
7 7 6 6 5 5 5 4 4 4 3 3 3 3 3 2 2 2 2 2 2 2 2 2 2 2 2 2 2 3 3 3 3 4 4 4 5 5 5 6 6 6 7
6 6 5 5 4 4 4 3 3 3 2 2 2 2 2 2 2 2 2 2 2 2 2 2 2 2 2 2 2 2 2 3 3 3 4 4 4 5 5 5 6 6 6
5 5 4 4 4 3 3 3 2 2 2 2 2 2 2 1 1 1 1 1 1 1 1 1 1 1 2 2 2 2 3 3 3 3 4 4 4 5 5 5 5 6 6
4 4 3 3 3 3 2 2 2 2 2 2 1 1 1 1 1 1 1 1 1 1 1 1 1 1 1 2 2 2 3 3 3 4 4 4 4 5 5 5 5 5 6
Wind_Speed
12 11 10 10 10 9 7 7 6 6 6 6 7 8 8 8 8 7 7 6 7 7 6 6 6 6 4 4 3 3 4 4 5 5 4 3 2 3 4 7 10 12 13
12 11 10 9 9 9 10 9 8 8 7 8 8 8 9 9 9 9 9 9 8 8 8 7 7 7 8 6 5 6 5 5 5 6 5 5 6 6 6 6 9 12 13
13 12 11 11 10 10 9 9 9 9 8 9 9 9 9 9 9 9 9 9 9 8 8 9 8 8 8 7 7 7 6 7 5 6 7 6 6 6 6 7 8 7 13
12 12 11 11 10 10 9 9 9 9 9 9 9 9 10 10 9 9 10 10 10 9 9 9 9 9 9 9 9 9 8 7 7 7 7 7 6 7 5 6 6 6 8
8 8 9 9 8 8 8 8 8 9 10 9 9 9 9 10 11 11 10 11 10 10 10 10 11 12 13 11 11 9 9 9 8 8 8 7 7 6 6 6 7 6 6
7 6 5 5 4 4 5 5 6 7 7 8 9 9 10 11 12 14 11 9 9 10 10 10 11 13 15 17 18 16 13 11 10 9 9 9 9 7 6 6 6 6 6
4 3 2 3 3 2 2 2 2 3 4 4 5 6 7 8 9 10 12 9 9 9 9 9 12 14 13 13 15 19 19 20 19 14 13 13 11 8 7 8 7 8 8
7 6 6 5 4 3 3 3 2 1 2 3 4 5 5 7 6 7 8 8 9 10 10 10 10 11 13 11 11 13 14 15 18 17 16 17 15 11 10 10 9 9 8
9 8 8 6 5 5 5 4 3 2 2 3 4 4 4 4 3 4 5 5 7 9 10 11 11 12 14 14 13 13 13 13 17 21 21 20 23 22 15 9 9 10 11
10 9 8 7 7 7 6 5 4 3 3 4 4 4 4 3 2 3 4 4 6 7 8 9 12 11 11 10 10 12 14 14 14 15 14 16 18 19 20 16 14 13 12
9 9 8 7 6 6 6 5 5 5 5 5 5 4 4 3 2 2 4 3 5 6 7 7 6 6 8 10 10 11 15 14 12 13 13 12 12 12 14 15 15 16 15
8 8 7 7 7 6 5 4 4 4 5 5 4 5 4 3 1 0 1 3 6 7 8 8 8 12 14 14 13 15 18 15 12 12 13 13 12 12 12 14 15 16 16
7 6 5 4 4 3 4 4 4 3 3 5 5 6 6 5 4 5 4 7 9 7 9 12 15 17 17 15 17 19 15 12 11 13 14 14 13 12 12 11 13 15 17
5 4 3 2 2 3 3 4 4 5 5 5 6 6 6 6 5 6 7 8 10 10 10 13 16 19 18 17 16 15 12 12 13 13 13 12 10 11 12 12 12 11 13
4 4 4 4 3 3 3 3 3 2 1 2 4 5 6 6 5 6 7 8 9 10 11 12 12 12 12 11 10 10 10 10 11 11 12 12 11 11 12 11 11 11 12
6 7 7 6 5 5 5 5 4 4 4 5 5 5 4 4 7 9 11 13 15 14 11 12 12 12 12 12 12 11 10 10 10 10 10 10 11 11 11 11 10 11 12
6 6 7 7 7 7 7 7 7 5 4 5 5 5 5 8 9 11 13 15 16 13 10 11 11 11 11 11 11 11 12 11 10 10 11 11 11 11 11 11 11 11 12
7 6 6 6 7 8 7 7 7 8 8 5 3 3 5 8 11 13 13 12 11 10 9 10 10 11 11 11 11 11 11 12 11 11 11 11 11 11 11 11 10 12 12
8 6 6 7 8 8 7 8 8 9 8 8 8 6 5 9 11 12 10 9 10 11 11 11 11 11 12 11 12 12 12 12 12 12 12 12 11 11 11 11 11 15 14
6 5 6 7 8 8 7 8 9 9 9 8 8 9 10 11 11 10 9 9 10 11 11 11 11 11 11 11 11 11 12 12 12 12 12 11 11 10 11 12 11 11 11
8 7 8 7 7 8 8 9 9 9 9 9 9 8 9 11 11 11 10 10 10 11 11 11 11 11 11 11 10 11 13 12 11 11 11 11 11 11 11 10 10 10 10
8 8 8 8 7 7 8 8 9 8 9 10 10 10 10 9 10 10 10 10 10 10 10 11 11 11 11 11 11 11 11 12 11 11 12 11 10 11 10 9 9 8 9
7 8 7 7 7 7 7 8 8 9 9 10 10 10 10 9 10 10 11 11 11 11 10 10 11 11 10 10 10 10 10 11 11 12 12 12 11 10 9 9 10 9 9
7 7 8 8 8 8 8 8 8 9 10 10 10 10 10 10 11 11 12 11 12 12 11 11 11 14 16 13 11 10 10 11 13 11 14 13 12 11 10 9 9 10 10
6 7 7 7 7 8 8 8 8 9 9 9 9 10 10 10 11 11 12 12 13 12 14 13 10 12 16 17 15 14 15 15 14 13 12 11 12 12 10 10 10 10 10
7 7 7 7 7 7 7 8 8 9 9 9 9 10 10 10 11 11 12 12 13 13 13 11 14 16 18 16 18 19 17 16 15 14 11 10 11 10 10 9 11 10 10
Wind_Direction
191 193 200 195 201 205 215 218 215 212 199 188 189 193 197 200 199 204 227 229 213 220 229 230 225 237 267 289 272 249 243 243 258 275 282 282 219 227 231 241 258 256 248
192 193 198 201 201 204 210 213 210 210 207 201 200 203 207 207 205 205 216 231 227 223 226 232 233 233 222 235 257 266 257 247 248 267 274 274 257 230 220 222 248 260 260
192 195 197 204 207 210 212 209 208 208 211 211 205 208 213 216 210 210 215 225 232 232 229 229 230 234 236 232 231 243 252 255 238 245 255 250 248 244 233 232 240 246 260
192 193 199 205 209 212 213 213 212 210 210 215 213 212 213 217 219 216 217 221 228 234 235 235 234 231 233 233 239 237 242 253 258 256 256 253 247 238 224 224 242 238 242
181 189 199 206 208 212 214 216 215 215 219 216 217 219 219 221 224 220 220 225 224 230 235 236 240 239 237 237 242 239 236 237 243 247 251 250 245 236 229 221 236 242 239
168 176 179 183 191 209 219 220 220 221 225 221 219 223 226 232 231 222 220 233 232 232 236 238 242 243 242 238 240 243 244 246 248 248 253 252 251 244 238 237 240 246 256
124 124 138 153 163 190 214 211 229 232 232 239 239 236 238 243 246 231 225 233 244 248 248 247 253 255 246 240 237 237 242 243 242 246 255 257 259 260 257 253 245 246 251
71 69 57 58 60 52 52 52 26 337 276 262 261 260 262 265 259 244 238 240 254 258 259 258 258 261 263 261 258 250 240 241 239 241 245 250 253 255 257 258 259 260 256
60 54 49 45 47 52 40 25 20 358 325 301 285 281 276 281 275 251 238 256 261 264 265 266 264 263 262 262 263 264 261 255 249 241 232 235 238 242 244 254 254 254 257
57 56 54 49 42 46 40 25 9 347 329 318 314 307 296 281 277 254 231 262 276 281 280 274 270 272 281 281 272 269 267 265 266 266 253 245 244 245 238 236 242 248 253
59 55 48 42 42 47 37 18 358 343 326 306 301 300 295 276 243 223 216 254 288 296 297 298 298 328 322 311 298 281 274 277 278 273 268 260 248 242 239 234 232 236 242
57 52 46 34 28 31 17 359 340 325 314 308 304 306 308 322 20 42 214 266 302 309 303 301 306 318 314 304 293 276 273 275 273 269 266 262 258 253 245 239 232 229 231
51 45 36 26 13 6 348 335 321 318 327 338 345 344 342 352 13 17 360 329 315 303 297 303 310 307 303 295 280 273 272 270 266 264 263 261 258 257 253 247 241 237 233
38 25 1 346 353 357 337 335 343 355 357 357 347 338 335 337 5 9 354 337 324 313 313 314 309 294 284 274 275 276 267 261 258 261 263 263 260 259 260 256 252 246 243
10 352 340 346 1 341 323 321 325 336 330 300 317 321 324 327 347 342 332 324 320 312 313 304 296 292 289 286 283 279 276 274 266 261 263 263 261 260 260 258 256 254 251
0 354 344 344 353 342 334 329 307 287 249 238 247 273 316 330 322 321 313 303 296 296 303 297 295 294 294 296 297 295 291 286 284 282 279 275 270 266 265 262 258 255 255
346 337 333 337 337 333 331 328 325 317 280 260 262 274 285 310 313 307 302 301 297 296 295 295 297 299 300 301 300 300 300 298 294 289 285 284 281 276 269 265 264 261 259
332 334 336 334 329 325 329 328 327 329 331 333 308 260 284 302 302 298 303 313 310 307 307 308 309 309 309 308 307 305 304 304 301 298 291 286 284 281 275 268 263 261 260
326 332 342 331 319 322 332 333 334 335 334 337 340 340 334 318 306 307 316 316 315 317 316 315 315 315 313 311 311 310 307 302 298 297 294 289 285 281 279 274 269 266 262
325 340 333 322 320 334 342 341 337 335 335 337 335 342 344 335 328 326 328 323 318 315 316 316 314 310 309 307 306 304 303 301 299 296 295 292 290 287 282 277 275 272 267
332 327 319 324 342 350 347 341 334 334 335 336 334 345 343 330 325 326 327 325 323 320 318 316 314 313 312 310 309 308 308 306 305 304 301 298 295 291 286 281 278 276 273
324 327 336 344 347 352 344 334 335 339 339 337 333 335 335 331 332 331 328 326 324 321 320 317 315 314 314 316 315 313 309 310 311 312 309 305 301 295 289 284 282 281 279
321 333 343 349 347 349 344 345 345 343 342 340 336 335 335 335 331 330 328 326 324 322 320 318 317 315 315 315 315 316 315 314 313 309 307 304 303 299 294 289 288 289 285
337 346 350 353 350 351 351 349 348 345 341 337 337 338 337 336 334 334 333 331 328 326 325 324 321 321 321 322 318 316 315 316 313 308 306 303 301 299 297 294 292 290 288
354 3 0 358 354 353 350 348 346 343 341 340 341 340 337 335 335 337 336 332 329 327 326 326 323 323 323 323 322 320 320 315 309 307 302 296 295 295 296 295 293 292 289
13 12 4 358 357 356 352 349 347 345 344 345 343 341 339 337 338 338 336 335 334 331 330 328 328 328 328 328 328 328 322 315 309 305 299 293 292 291 295 294 293 292 291
Height
1522 1525 1529 1532 1534 1537 1539 1540 1542 1543 1544 1545 1545 1546 1546 1547 1548 1548 1549 1551 1551 1551 1552 1553 1553 1554 1554 1555 1555 1556 1556 1557 1556 1555 1556 1555 1554 1554 1553 1552 1550 1549 1548
1519 1523 1526 1529 1531 1533 1535 1537 1538 1539 1540 1541 1542 1543 1543 1544 1545 1546 1546 1547 1548 1549 1549 1550 1550 1551 1551 1551 1551 1551 1552 1552 1552 1551 1550 1550 1550 1549 1548 1547 1546 1545 1544
1517 1520 1522 1525 1528 1530 1532 1533 1535 1536 1537 1537 1538 1539 1540 1541 1542 1542 1543 1544 1544 1545 1546 1546 1546 1547 1547 1547 1547 1547 1547 1547 1547 1547 1545 1545 1545 1545 1544 1542 1541 1540 1540
1514 1517 1519 1521 1524 1526 1528 1530 1531 1532 1533 1533 1534 1535 1536 1537 1538 1539 1539 1540 1540 1541 1541 1542 1542 1542 1542 1542 1542 1542 1542 1542 1542 1541 1540 1540 1540 1539 1539 1537 1536 1535 1535
1512 1513 1515 1518 1520 1522 1524 1525 1527 1528 1529 1529 1530 1531 1532 1532 1533 1534 1534 1535 1535 1536 1536 1536 1537 1537 1537 1537 1537 1537 1537 1536 1536 1535 1534 1534 1534 1534 1533 1532 1531 1530 1530
1508 1510 1512 1514 1516 1518 1520 1521 1522 1523 1524 1525 1525 1526 1527 1528 1529 1529 1530 1530 1530 1530 1530 1530 1531 1531 1531 1531 1530 1531 1531 1530 1529 1529 1528 1527 1527 1527 1527 1527 1526 1525 1523
1506 1508 1509 1510 1512 1514 1515 1516 1518 1518 1519 1520 1521 1521 1522 1523 1524 1524 1524 1525 1525 1524 1524 1524 1524 1524 1524 1524 1523 1523 1523 1522 1522 1521 1520 1519 1519 1520 1521 1520 1518 1517 1516
1503 1504 1506 1507 1508 1510 1511 1512 1514 1514 1515 1516 1517 1517 1517 1518 1518 1519 1519 1518 1518 1518 1518 1517 1517 1517 1517 1517 1516 1514 1513 1513 1513 1512 1510 1510 1511 1511 1512 1512 1511 1509 1508
1502 1503 1504 1506 1507 1507 1509 1509 1510 1511 1511 1512 1512 1513 1513 1513 1513 1513 1512 1512 1511 1510 1510 1510 1509 1508 1508 1508 1507 1505 1504 1503 1503 1502 1501 1500 1501 1501 1502 1502 1501 1500 1498
1502 1503 1504 1505 1506 1506 1507 1507 1508 1509 1509 1509 1509 1509 1508 1508 1507 1507 1507 1506 1504 1504 1503 1503 1502 1501 1500 1499 1498 1496 1494 1493 1494 1493 1492 1491 1490 1490 1491 1491 1490 1490 1488
1505 1505 1505 1505 1506 1506 1506 1506 1507 1507 1507 1507 1506 1506 1505 1504 1503 1502 1501 1500 1499 1497 1496 1495 1495 1493 1491 1490 1488 1486 1484 1484 1482 1481 1480 1479 1479 1478 1478 1478 1478 1478 1477
1506 1506 1506 1506 1506 1506 1506 1506 1505 1505 1505 1505 1504 1503 1502 1502 1499 1497 1496 1495 1493 1491 1489 1488 1487 1485 1483 1481 1479 1477 1476 1474 1472 1470 1468 1467 1467 1466 1466 1466 1466 1466 1465
1508 1507 1507 1506 1506 1506 1505 1505 1504 1504 1503 1503 1502 1500 1499 1498 1496 1493 1491 1490 1488 1486 1483 1481 1479 1476 1474 1471 1470 1468 1466 1464 1461 1459 1456 1455 1455 1455 1455 1455 1454 1454 1454
1508 1508 1508 1507 1507 1506 1505 1505 1504 1503 1502 1500 1499 1497 1495 1494 1492 1489 1487 1484 1482 1479 1476 1473 1470 1468 1465 1463 1460 1458 1456 1454 1452 1449 1447 1445 1445 1444 1443 1443 1443 1443 1443
1510 1510 1509 1509 1508 1506 1505 1504 1503 1501 1500 1498 1496 1494 1492 1490 1488 1485 1482 1479 1476 1473 1469 1465 1462 1459 1456 1454 1452 1450 1448 1446 1444 1441 1438 1436 1435 1434 1433 1433 1433 1432 1432
1511 1511 1510 1509 1507 1506 1504 1503 1501 1500 1497 1495 1493 1491 1488 1486 1483 1480 1477 1474 1471 1467 1463 1459 1455 1453 1450 1447 1445 1442 1440 1438 1435 1433 1430 1427 1426 1424 1423 1422 1422 1422 1421
1511 1510 1509 1508 1506 1504 1502 1500 1498 1497 1494 1491 1489 1486 1483 1481 1478 1475 1472 1468 1465 1462 1458 1454 1451 1448 1445 1442 1438 1435 1432 1429 1427 1424 1421 1419 1417 1415 1414 1413 1413 1412 1411
1510 1509 1507 1506 1504 1502 1500 1498 1496 1493 1491 1488 1486 1483 1479 1477 1474 1470 1467 1463 1460 1457 1454 1450 1446 1443 1439 1435 1432 1428 1424 1421 1418 1416 1413 1411 1409 1407 1405 1404 1403 1402 1401
1509 1508 1505 1503 1502 1500 1498 1495 1493 1491 1488 1485 1482 1479 1476 1473 1470 1467 1463 1459 1456 1452 1449 1445 1441 1437 1433 1429 1425 1421 1418 1414 1411 1408 1405 1403 1400 1398 1396 1395 1394 1393 1392
1507 1505 1503 1501 1499 1497 1495 1492 1490 1488 1485 1482 1479 1476 1472 1469 1465 1462 1459 1455 1451 1447 1443 1439 1435 1431 1427 1423 1419 1415 1411 1407 1403 1400 1397 1394 1392 1390 1388 1386 1385 1384 1383
1505 1503 1501 1499 1497 1494 1492 1490 1487 1485 1482 1479 1477 1473 1469 1465 1462 1458 1455 1451 1447 1442 1438 1434 1429 1425 1421 1417 1413 1409 1405 1401 1397 1393 1390 1387 1384 1382 1380 1378 1377 1376 1374
1502 1501 1499 1497 1494 1492 1489 1487 1485 1482 1479 1476 1473 1470 1466 1463 1459 1455 1451 1446 1442 1438 1434 1429 1424 1420 1416 1411 1407 1403 1399 1395 1391 1387 1384 1380 1377 1375 1373 1371 1370 1369 1367
1500 1498 1496 1494 1492 1489 1487 1484 1482 1479 1476 1473 1470 1467 1463 1459 1455 1451 1447 1442 1438 1433 1429 1424 1419 1414 1410 1406 1402 1398 1394 1389 1386 1382 1378 1374 1371 1369 1367 1366 1364 1363 1361
1498 1496 1494 1492 1489 1487 1485 1482 1480 1477 1474 1471 1468 1464 1460 1456 1452 1448 1444 1439 1434 1429 1424 1419 1414 1409 1405 1400 1396 1392 1388 1384 1380 1376 1372 1369 1366 1364 1362 1360 1359 1358 1357
1496 1494 1492 1490 1488 1485 1483 1480 1478 1475 1472 1469 1465 1462 1458 1454 1450 1445 1440 1435 1430 1425 1420 1415 1409 1404 1399 1395 1390 1386 1382 1378 1374 1370 1366 1364 1361 1359 1357 1356 1354 1353 1352
1494 1492 1490 1488 1486 1484 1481 1479 1476 1474 1470 1467 1464 1460 1456 1452 1448 1443 1438 1432 1427 1422 1416 1411 1405 1400 1395 1390 1385 1380 1376 1371 1367 1364 1361 1358 1356 1354 1353 1351 1350 1348 1347